Simultaneous Nadir Overpasses (SNOs) Predictions

Prediction of SNOs between AQUA and METOP-A Satellite Orbit:

Table of predicted SNOs for the next 14.0 days since TLE Epoch: 4/15/2016
Index Date (AQUA) Time (AQUA) Lat,Lon (AQUA) SZA (AQUA ) Date (METOP-A) Time (METOP-A) Lat,Lon (METOP-A) SZA (METOP-A ) Distance(km) Time Diff (sec)
1 04/16/2016 01:56:04 -73.84, -34.72 116.40 04/16/2016 01:55:05 -73.85, -34.75 116.37 1.66 59
2 04/16/2016 02:45:33 73.93, 132.72 63.69 04/16/2016 02:45:43 73.93, 132.77 63.69 1.56 10
3 04/16/2016 03:35:07 -74.35, -60.61 115.88 04/16/2016 03:36:16 -74.37, -58.79 115.91 54.76 69
4 04/18/2016 21:30:20 -73.88, 31.62 117.35 04/18/2016 21:29:27 -73.88, 31.72 117.34 3.18 53
5 04/18/2016 22:19:48 73.92,-160.83 62.69 04/18/2016 22:20:06 73.91,-160.88 62.68 1.97 18
6 04/18/2016 23:09:28 -74.64, 5.11 116.55 04/18/2016 23:10:33 -74.64, 8.33 116.64 94.85 65
7 04/21/2016 17:04:36 -73.88, 98.05 118.31 04/21/2016 17:03:51 -73.86, 98.07 118.32 2.60 45
8 04/21/2016 17:54:04 73.92, -94.41 61.73 04/21/2016 17:54:29 73.93, -94.42 61.74 1.01 25
9 04/24/2016 12:38:52 -73.90, 164.44 119.23 04/24/2016 12:38:14 -73.88, 164.52 119.24 3.25 38
10 04/24/2016 13:28:20 73.94, -28.02 60.82 04/24/2016 13:28:52 73.95, -27.96 60.82 2.16 32
11 04/27/2016 08:13:06 -73.88,-129.08 120.15 04/27/2016 08:12:36 -73.90,-129.03 120.13 2.54 30
12 04/27/2016 09:02:34 73.93, 38.45 59.89 04/27/2016 09:03:15 73.92, 38.37 59.89 2.50 41




NCC Satellite Simultaneous Nadir Overpasses (SNOs) Prediction Service
